Regional Weather Roundup
Issued by NWS Glasgow, MT

Home | Current Version | Previous Version | Text Only | Print | Product List | Glossary On
Versions: 1 2 3 4 5 6 7 8 9 10 11 12 13 14 15 16 17 18 19 20 21 22 23 24 25 26 27 28 29 30 31 32 33 34 35 36 37 38 39 40 41 42 43 44 45 46 47 48 49 50
000
ASUS45 KGGW 061415
RWRGGW
HOURLY REGIONAL WEATHER ROUNDUP FOR NORTHEAST MONTANA
NATIONAL WEATHER SERVICE GLASGOW MONTANA
800 AM MDT MON JUL 06 2015

NOTE: "FAIR" INDICATES FEW OR NO CLOUDS BELOW 12,000 FEET WITH NO
SIGNIFICANT WEATHER AND/OR OBSTRUCTIONS TO VISISBILITY.

NORTHEAST MONTANA


CITY           SKY/WX    TMP DP  RH WIND       PRES   REMARKS
GLASGOW        MOSUNNY   58  51  78 NW6       30.22R
PLENTYWOOD       N/A     59  51  75 SW6         N/A
WOLF POINT     SUNNY     62  54  74 N6        30.21R
JORDAN           N/A     59  54  83 W8        30.24S
WINNETT          N/A     56  48  74 W3          N/A
SIDNEY         SUNNY     63  52  67 NW9       30.19R
GLENDIVE       SUNNY     59  54  82 NW10      30.22R
MALTA            N/A     56  54  93 W5          N/A

FORT PECK REPORTS


CITY           SKY/WX    TMP DP  RH WIND       PRES   REMARKS
FORT PECK        N/A     59  57  93 W7          N/A
THE PINES        N/A     61  52  72 S5          N/A

SOUTHEAST MONTANA


CITY           SKY/WX    TMP DP  RH WIND       PRES   REMARKS
BILLINGS       CLOUDY    55  49  80 NE8       30.29S
MILES CITY     CLOUDY    58  55  90 W7        30.24R
BAKER          PTSUNNY   59  54  83 N9        30.22S
LIVINGSTON     CLOUDY    53  49  86 E10       30.27R

CENTRAL MONTANA


CITY           SKY/WX    TMP DP  RH WIND       PRES   REMARKS
HAVRE          SUNNY     54  51  90 MISG      30.25R
LEWISTOWN      PTSUNNY   54  48  80 CALM      30.28S
GREAT FALLS    SUNNY     52  49  89 SE6       30.25F
CUT BANK       SUNNY     48  46  93 CALM      30.24F
HELENA         CLOUDY    53  46  77 W5        30.26F
BUTTE          PTSUNNY   55  45  68 NE3       30.27R
BOZEMAN        CLOUDY    55  49  80 CALM      30.26S

WESTERN MONTANA


CITY           SKY/WX    TMP DP  RH WIND       PRES   REMARKS
MISSOULA       SUNNY     58  44  60 N5        30.20R
KALISPELL      NOT AVBL

NORTH DAKOTA


CITY           SKY/WX    TMP DP  RH WIND       PRES   REMARKS
WILLISTON      PTSUNNY   58  52  80 NE10      30.19R HAZE
DICKINSON      CLOUDY    60  52  74 NW7       30.17R
MINOT          CLOUDY    57  50  77 NW3       30.15S SMOKE
BISMARCK       PTSUNNY   62  55  77 NW7       30.13R HAZE

SOUTHERN SASKATCHEWAN


CITY           SKY/WX    TMP DP  RH WIND       PRES   REMARKS
REGINA         MOSUNNY   57  48  72 N3        30.22S
MOOSE JAW      MOSUNNY   57  50  77 CALM      30.24R
ESTEVAN        CLOUDY    57  50  77 NE8       30.19S SMOKE
SWIFT CURRENT  MOSUNNY   54  50  87 W5        30.23R



USA.gov is the U.S. government's official web portal to all federal, state and local government web resources and services.